Showing default

HULIANWANG DIGUI-153, 67529

Orbit data source: Space-Track

HULIANWANG DIGUI-153, 67529 is a payload satellite owned by Zhongguo Xingwang (CN) in LEO that was launched on Mon, 19 Jan 2026 UTC via a CHANG ZHENG 12 launch vehicle from the Wenchang Satellite Launch Center (WSC). Payload-class satellites include a variety of spacecraft equipped with specific instruments for various scientific and technological missions. These include communications satellites like Starlink; space stations such as the ISS; scientific satellites like the Hubble; Earth observation satellites from companies like Planet Labs, Umbra, and HawkEye 360; GPS; miniature CubeSats for education and research; and military/defense satellites.

Loading next visibility...
Identifier
67529, 2026-013H
Orbit
LEO
Country
Flag of CNCN / PRC
Related business
Manufacturer
YINNT
Mission
Operational Civil Communications
Bus & Motor
XINGWANG Y, Unknown motor
Mass
~800 kg wet, ~800 kg dry
Launch date (UTC)
2026-01-19 (5 months ago)
Launch vehicle
CHANG ZHENG 12
Launch site
Wenchang Satellite Launch Center (WSC)
Object type
Payload
Rocket body
Debris
Shape & HBR
Box + 2 Pan, 14.5 m
Radar Cross Section
5.935 m², Large (>1 m²)

Expand to show TLE details & history
Last TLE update: 7 hours ago

TLE from 7 hours ago
0 HULIANWANG DIGUI-153
1 67529U 26013H   26163.81527582 -.00000082  00000-0  90093-4 0  9993
2 67529  50.0054  11.0126 0001098  98.7322 261.3675 13.29329776 19464
Epoch: 2026-06-12T19:33Z
TLE epoch observation values (Epoch: 2026-06-12T19:33:59.830Z)
Latitude
Longitude
176.374°
Altitude
1,149.923 km
Speed
7.279 km/s
True Right ascension
00h 44m 03s
True Declination
0° 00' 00"
Sunlit
Object was in daylight at epoch
Visualization orbit readout
Latitude
Unknown
Longitude
Unknown
Altitude
Unknown
Speed
Unknown
Apparent Right ascension
Unknown
Apparent Declination
Unknown
Sunlit
N/A
Visualization observer readout
Local Sidereal Time
12:48:18
Azimuth
Unknown
Elevation
Unknown
Doppler factor
Unknown
Orbital elements
Apogee altitude
1,150.823 km
Perigee altitude
1,149.17 km
Semi-major axis
7,528.134 km
Eccentricity
0.00011
Inclination
50.0054°
RAAN
11.0126°
Arg. of periapsis
98.7322°
True anomaly
261.35506°
Mean anomaly
261.3675°
Eccentric anomaly
261.36128°
Mean motion
3.32286 °/min
Orbital period
108.34 mins
BSTAR
0.000090093
Loading maneuver chart data...
Computing Atmospheric mass density...
Loading historical data...
Loading historical data...
Loading historical data...
Loading historical data...
Loading historical data...
Loading historical data...
Loading historical data...

Documentation

Showing up to 5 results
|